This demonstration page uses our WeatherBlox Daily Observations layout. Learn more.

Left ArrowRight Arrow

39.92423, -83.80882

Hourly Observations for April 29, 2020

Temp ( °F °C ) Dew Point ( °F °C ) Humidity (%) Winds ( mph kmh ) Pressure ( in mb ) Visibility ( mi km ) Precip ( " mm )
12:56 am 00:56 Cloudy 63 17.2 50 10 63 63 SSE 12 19 29.79 1009 10 16.0934 0 0
1:56 am 01:56 Mostly Cloudy 63 17.2 49 9.4 60 60 S 9 15 29.78 1008 10 16.0934 0.001 0.001
2:56 am 02:56 Mostly Cloudy 64 17.8 48 8.9 56 56 S 9 15 29.73 1007 10 16.0934 0 0
3:56 am 03:56 Cloudy with Light Rain 62 16.7 48 8.9 60 60 SSW 17 28 29.71 1006 10 16.0934 0.001 0.001
4:56 am 04:56 Cloudy with Light Rain 59 15 51 10.6 75 75 SSE 9 15 29.7 1006 8 12.87472 0.22 5.588
5:56 am 05:56 Cloudy 59 15 51 10.6 75 75 SSE 10 17 29.68 1005 10 16.0934 0.001 0.001
6:56 am 06:56 Cloudy 62 16.7 50 10 65 65 S 12 19 29.67 1005 10 16.0934 0 0
7:56 am 07:56 Cloudy 61 16.1 53 11.7 75 75 S 12 19 29.66 1004 10 16.0934 0.001 0.001
8:56 am 08:56 Cloudy 62 16.7 52 11.1 70 70 S 16 26 29.6 1003 10 16.0934 0.001 0.001
9:56 am 09:56 Cloudy 62 16.7 53 11.7 73 73 S 17 28 29.57 1002 10 16.0934 0 0
10:56 am 10:56 Cloudy 66 18.9 52 11.1 61 61 S 15 24 29.56 1001 10 16.0934 0 0
11:56 am 11:56 Cloudy with Light Rain 64 17.8 52 11.1 65 65 SW 22 35 29.59 1002 10 16.0934 0.001 0.001
12:56 pm 12:56 Cloudy with Light Rain 63 17.2 57 13.9 81 81 SW 17 28 29.6 1002 10 16.0934 0.001 0.001
1:56 pm 13:56 Cloudy 63 17.2 56 13.3 78 78 SSW 15 24 29.58 1002 10 16.0934 0.001 0.001
2:56 pm 14:56 Cloudy with Light Rain 58 14.4 55 12.8 90 90 SW 8 13 29.62 1003 10 16.0934 0.05 1.27
3:56 pm 15:56 Cloudy with Light Rain 57 13.9 54 12.2 90 90 S 7 11 29.62 1003 10 16.0934 0.001 0.001
4:56 pm 16:56 Cloudy with Rain 55 12.8 55 12.8 100 100 S 10 17 29.65 1004 10 16.0934 0.04 1.016
5:56 pm 17:56 Cloudy with Light Rain 55 12.8 54 12.2 96 96 S 15 24 29.65 1004 10 16.0934 0.07 1.778
6:56 pm 18:56 Cloudy 54 12.2 51 10.6 90 90 SSE 20 31 29.61 1003 10 16.0934 0.02 0.508
7:56 pm 19:56 Partly Cloudy 53 11.7 51 10.6 93 93 SW 7 11 29.65 1004 10 16.0934 0 0
8:56 pm 20:56 Clear 53 11.7 52 11.1 96 96 SSW 6 9 29.66 1004 10 16.0934 0 0
9:56 pm 21:56 Clear 52 11.1 50 10 93 93 SSW 9 15 29.65 1004 10 16.0934 0 0
10:56 pm 22:56 Clear 51 10.6 50 10 96 96 S 6 9 29.65 1004 10 16.0934 0 0
11:22 pm 23:22 Mostly Cloudy 52 11 50 10 94 94 S 6 9 29.65 1004 10 16.0934 0 0
11:56 pm 23:56 Cloudy 51 10.6 51 10.6 100 100 S 8 13 29.65 1004 10 16.0934 0 0

Powered by AerisWeather